Location: Allaines
(49.9632°N, 2.9458°E)
Time: 05:25:44
(UTC+00:00)

Cosmos 2154 Rocket - Pass Details

Date: 09 April 2020
Orbit: 965 x 997 km, 82.9° (Epoch: 01 June)

Event Time Altitude Azimuth Distance (km) Brightness Sun altitude
Rises 19:21:53 0° 350° (N) 3,731 7.5 -8.2°
Reaches altitude 10° 19:24:26 10° 351° (N) 2,776 6.8 -8.6°
Maximum altitude 19:30:50 84° 81° (E) 1,006 4.1 -9.6°
Drops below altitude 10° 19:37:09 10° 170° (S) 2,742 6.0 -10.5°
Sets 19:39:39 0° 171° (S) 3,682 6.7 -10.8°
